Theta_e
351 352 355 354 354 352 352 353 355 355 355 354 354 353 353 352 353 354 353 354 353 353 353 352 350 352 352 351 351 350 349 348 347 347 347 347 347 349 349 349 349 350 349 348 348 348 349 350 350 349 350 350 350 349 348 347 347 346 346 345 345 344 343 343 343 342 342 342 343 343 344 343 343 343 342 340 339 338 338 338 338 336 337 338 339
349 353 355 356 353 353 353 353 355 354 354 354 354 352 353 352 353 353 353 353 354 353 353 352 353 352 351 350 349 349 349 348 348 348 347 347 347 348 347 348 348 348 348 347 347 348 349 349 349 350 349 349 348 349 348 347 346 346 345 344 344 344 344 343 342 343 344 344 343 342 342 342 342 342 341 340 339 339 338 338 338 338 337 338 338
352 353 355 355 354 353 352 353 354 354 354 354 354 353 352 352 353 353 354 354 353 353 352 352 351 350 349 349 349 349 348 348 347 347 348 348 349 349 348 349 349 349 348 348 347 348 348 348 348 348 347 347 347 348 347 346 346 345 345 344 344 344 343 343 345 345 343 341 341 341 341 341 341 340 340 340 339 338 338 337 338 338 336 337 337
350 352 355 355 353 353 352 354 354 354 354 354 354 353 353 353 353 353 353 353 353 352 352 351 351 350 351 350 349 349 348 348 348 348 348 348 348 347 346 348 347 348 349 348 347 346 346 346 346 346 346 346 347 347 347 346 345 346 345 344 344 344 344 345 343 341 341 342 342 341 341 341 340 339 340 340 340 339 338 338 338 338 337 337 337
350 352 355 356 355 354 353 352 354 353 354 354 354 354 353 353 354 354 354 353 353 353 352 351 351 351 351 351 350 350 350 349 349 348 348 347 347 347 347 348 348 349 349 348 347 347 346 344 345 345 346 346 347 346 346 346 345 345 345 346 346 344 345 344 344 343 342 341 340 342 342 341 341 340 340 340 339 338 338 338 338 338 338 337 337
350 352 355 356 355 354 352 351 353 354 354 354 354 353 353 354 354 354 354 354 354 354 353 353 352 352 351 351 350 350 350 349 349 349 350 349 350 348 348 348 348 348 348 347 346 346 345 344 345 345 346 345 345 344 346 345 345 345 345 346 346 346 345 344 342 342 341 341 339 342 341 342 340 338 339 339 339 338 337 338 337 338 338 337 337
351 352 353 354 357 352 352 351 354 354 354 353 353 353 353 353 353 353 353 353 353 352 353 353 352 352 351 351 351 351 350 350 349 349 349 350 349 348 346 347 347 348 347 347 346 345 345 344 344 345 344 345 344 344 345 345 344 344 344 344 345 344 343 343 342 341 340 340 340 341 341 341 340 338 339 340 339 338 337 337 337 337 337 337 336
351 351 352 353 355 352 351 352 350 354 353 353 351 352 353 353 353 353 353 353 353 353 353 352 352 352 352 351 351 350 350 349 350 350 350 350 350 349 348 345 346 346 346 346 345 345 345 345 345 345 345 344 345 345 345 344 343 343 343 343 344 343 342 341 341 340 338 338 339 340 341 340 340 338 339 339 340 339 339 338 338 337 336 336 336
347 349 351 352 354 352 351 351 349 352 353 353 352 353 353 353 353 353 353 353 354 353 353 353 353 352 352 351 350 350 350 350 350 350 349 348 348 348 348 346 346 346 345 345 345 345 345 345 345 344 345 345 345 345 344 343 344 343 342 343 342 342 341 341 340 339 339 339 339 339 340 340 341 340 339 340 339 339 337 337 337 336 335 336 336
346 350 350 351 354 353 352 350 347 347 349 353 352 353 353 353 353 353 353 353 353 353 353 353 352 352 352 351 351 351 351 350 350 349 348 348 348 347 346 346 345 345 345 345 345 344 344 344 344 345 346 345 344 343 344 343 342 342 342 341 341 341 341 340 340 339 339 338 338 339 340 340 340 339 339 339 337 334 335 335 336 335 335 335 336
345 347 350 352 353 353 351 351 347 344 345 349 351 352 352 352 352 352 353 353 353 353 353 353 353 353 352 352 351 350 350 350 349 348 347 347 348 347 347 347 346 345 345 344 344 344 344 344 344 344 345 344 344 343 343 341 340 341 341 341 340 340 339 338 339 339 338 338 339 341 339 339 340 340 338 336 337 337 336 335 334 334 335 335 335
344 348 350 350 352 351 352 351 348 343 344 345 345 351 351 351 352 352 352 352 353 353 353 352 352 352 352 351 351 351 351 350 348 347 348 348 348 347 346 347 346 345 345 344 344 343 344 344 345 344 345 344 344 344 342 341 341 341 341 340 340 339 338 337 338 338 339 338 338 339 338 338 338 338 338 339 337 336 336 335 335 335 335 335 335
344 346 349 350 351 350 351 351 350 347 346 345 345 349 349 350 351 352 352 352 353 353 353 352 352 351 352 352 351 350 350 350 349 348 348 347 346 347 346 346 345 346 345 344 344 344 345 345 345 344 343 343 343 342 341 340 340 341 341 341 340 339 338 338 338 338 338 339 338 338 337 339 341 339 338 337 336 336 336 336 335 334 334 334 334
343 344 346 349 351 350 351 351 352 349 346 345 345 347 347 348 350 351 352 352 353 353 352 352 352 352 352 351 351 351 350 349 348 348 348 347 344 346 347 346 344 345 345 344 344 344 345 344 344 344 343 343 343 341 340 340 341 342 341 341 340 339 338 338 340 338 338 338 340 337 338 341 340 339 337 337 337 336 336 335 333 334 333 333 334
343 345 348 350 351 351 352 351 351 349 346 345 344 346 345 345 347 349 351 352 353 353 352 352 352 351 352 352 351 351 350 348 348 348 348 347 345 346 346 346 346 345 345 345 345 344 344 344 343 343 343 343 342 341 340 339 339 341 341 342 340 339 337 337 337 338 337 337 338 336 338 340 339 336 336 337 337 337 335 334 333 333 333 333 333
345 346 347 349 350 351 351 352 351 350 347 345 345 345 346 345 346 348 350 351 351 351 351 351 351 351 351 350 350 350 350 349 349 348 348 347 346 346 345 345 346 345 345 344 345 345 344 344 344 344 343 342 341 340 339 337 338 340 341 341 341 338 337 337 338 339 338 338 338 339 338 340 340 338 338 338 337 335 335 334 332 333 333 333 332
345 346 346 347 349 350 350 351 352 351 348 346 347 347 347 346 346 347 348 351 351 350 351 351 351 351 350 350 350 350 349 349 348 347 346 345 346 346 346 345 346 343 344 345 345 345 345 345 344 343 343 342 341 340 338 337 338 339 339 340 339 338 337 336 337 339 339 338 337 337 339 338 338 339 338 337 336 335 334 333 333 331 332 332 332
343 344 344 346 347 348 349 350 350 353 352 349 347 348 349 347 344 343 348 347 342 345 349 350 349 350 349 348 350 349 349 347 346 345 345 345 345 346 346 346 346 347 344 345 346 346 345 344 344 343 342 341 340 339 338 338 339 339 339 339 339 338 338 337 339 338 339 338 337 338 339 341 341 338 337 336 335 334 334 333 333 332 331 332 332
343 343 344 344 343 345 346 347 349 349 351 353 351 349 347 348 344 343 343 343 340 343 344 347 348 348 347 346 349 349 349 348 346 346 346 345 345 345 346 346 346 346 346 345 345 345 345 344 343 342 341 340 339 338 338 338 340 340 339 339 339 339 338 337 338 337 339 339 339 338 338 339 341 337 337 336 334 334 334 333 332 331 332 331 331
341 341 342 343 343 342 344 344 346 347 348 349 352 352 348 346 344 340 341 342 341 339 339 345 348 348 348 347 349 350 349 349 346 347 346 346 347 345 345 346 347 346 346 346 344 343 344 344 343 341 341 340 339 338 338 339 340 340 339 338 339 340 341 340 338 337 338 338 340 338 339 339 338 336 336 335 335 334 333 332 332 332 332 331 331
339 339 340 341 342 342 341 342 344 345 347 348 351 352 351 347 347 345 343 341 339 340 342 342 345 346 348 348 347 349 350 350 351 350 346 348 346 346 345 346 346 346 345 345 344 344 343 342 342 341 340 340 339 338 338 339 339 339 339 340 339 339 344 341 340 340 338 339 339 336 339 337 336 336 336 335 334 334 333 332 331 331 330 331 331
336 337 338 339 339 340 340 341 341 343 345 346 348 351 350 349 351 349 346 343 341 342 345 349 345 350 347 349 351 351 351 350 351 345 349 348 347 345 345 345 346 346 345 344 344 344 342 342 342 341 339 340 339 338 339 339 337 337 338 338 341 342 343 341 341 339 338 339 339 339 338 336 336 337 336 334 334 333 333 332 332 330 330 330 330
334 336 336 337 337 338 339 339 339 341 343 344 345 347 348 349 349 349 348 345 344 344 345 345 347 349 349 348 351 351 346 347 351 349 349 346 345 345 344 344 345 345 345 344 344 343 341 341 340 340 339 336 338 338 338 338 339 334 336 341 341 341 341 341 341 341 338 338 338 339 338 336 337 337 335 334 334 334 333 332 332 331 329 329 330
334 335 335 336 337 337 336 337 340 340 340 342 343 345 346 348 349 348 347 346 344 341 342 343 345 345 346 349 350 347 347 353 346 345 346 349 347 344 342 344 343 344 344 344 343 342 341 341 340 340 337 335 337 335 334 335 335 338 340 341 340 340 340 340 340 341 340 337 337 338 339 337 337 337 336 334 335 334 333 332 332 331 329 329 329
335 336 336 335 335 336 337 337 338 341 341 342 340 341 344 345 345 346 346 345 343 341 343 342 344 343 343 344 344 346 346 346 350 349 349 348 348 347 346 345 346 345 343 342 341 338 341 340 340 338 337 336 334 335 335 334 336 336 337 339 340 340 340 340 340 339 340 340 340 338 339 339 338 337 336 335 335 333 332 332 331 332 330 329 328
336 334 335 335 335 335 336 337 337 338 341 341 341 341 341 340 342 344 344 345 343 342 342 343 342 343 342 344 345 344 345 346 348 347 347 347 346 346 347 346 345 345 342 341 339 340 340 339 338 336 336 337 336 336 335 334 333 333 335 337 340 340 340 339 340 340 340 340 341 337 339 339 339 337 336 336 335 333 332 333 332 331 331 329 328
334 334 336 337 337 336 336 339 338 339 340 341 341 341 340 340 341 343 342 342 344 343 342 343 343 341 341 343 343 344 345 346 344 344 345 342 344 345 346 345 345 343 343 340 339 340 339 336 336 335 334 335 335 334 333 334 335 332 333 333 337 338 339 339 339 339 340 339 341 337 338 339 339 338 337 335 335 335 334 333 332 332 330 330 330
333 333 335 337 339 336 337 338 339 340 339 340 341 341 341 340 342 343 341 343 342 341 341 341 343 341 341 344 344 343 344 343 341 341 341 341 344 345 346 346 345 341 341 339 338 338 338 337 334 332 333 335 333 333 332 331 334 335 332 332 335 338 339 339 340 340 340 340 340 338 338 339 340 339 337 336 336 335 334 333 332 332 331 330 330
333 334 335 336 336 337 338 339 340 339 339 341 340 340 341 341 342 342 342 342 341 341 341 341 341 341 341 342 342 342 342 342 341 341 340 340 342 343 343 344 343 340 340 338 338 338 337 336 335 334 335 334 333 333 332 332 334 335 332 330 331 334 337 339 339 339 339 338 339 339 337 339 340 340 338 337 336 336 335 333 334 332 331 330 330
334 334 334 336 335 336 338 339 339 339 340 341 340 340 341 341 341 342 344 343 341 340 340 341 342 342 340 340 342 343 342 341 340 341 340 339 341 340 341 342 342 343 339 337 339 338 337 336 335 334 330 332 331 333 332 332 330 332 332 331 329 332 336 337 338 337 338 339 340 340 336 337 338 339 339 338 337 336 335 334 334 332 332 330 331
332 331 333 335 334 333 337 339 338 340 340 340 340 340 341 340 341 342 341 339 339 338 338 340 341 342 341 341 341 342 342 341 340 340 335 336 335 337 340 340 340 341 340 338 339 339 339 336 335 333 332 331 331 332 331 331 331 330 332 331 331 332 334 336 336 337 337 338 339 340 338 336 338 339 339 338 340 337 336 336 335 334 332 331 331
329 331 333 333 332 334 336 339 339 340 341 340 341 339 339 339 340 340 339 338 339 336 334 337 339 339 340 340 342 343 342 339 338 338 332 333 333 334 335 335 338 340 339 338 340 342 340 336 335 337 335 333 332 333 334 331 331 332 333 332 333 333 332 335 335 336 337 338 338 340 340 338 337 338 339 338 338 340 337 336 336 335 334 332 331
330 333 332 329 331 334 337 338 339 340 340 340 340 340 340 338 337 337 337 338 339 338 337 337 337 338 338 338 340 341 340 340 338 336 336 333 334 333 335 332 332 339 339 338 339 339 339 338 336 336 336 334 333 333 333 335 335 336 336 333 336 333 333 334 335 336 336 337 338 338 339 338 338 338 337 338 338 338 339 339 336 335 335 334 333
329 329 328 328 330 331 335 336 337 338 340 339 339 337 338 336 335 336 337 337 337 338 337 337 336 334 336 337 338 339 338 338 335 334 335 334 333 334 333 333 335 336 338 339 337 337 336 338 337 335 334 334 335 335 335 335 336 336 337 336 336 337 336 333 335 336 338 338 338 339 338 338 337 338 339 339 338 337 336 338 339 337 336 335 334
327 325 326 328 328 330 332 335 337 338 337 336 334 333 334 334 334 335 336 337 337 336 336 337 336 335 334 336 335 338 337 338 337 335 336 334 333 332 333 334 336 336 336 338 338 337 336 336 337 334 335 335 337 336 335 334 334 334 336 338 335 335 338 336 336 336 335 338 339 338 339 338 337 338 337 339 339 337 336 337 339 339 338 336 335
326 326 326 326 326 328 333 334 336 336 334 331 331 331 330 332 335 334 335 336 335 335 336 337 336 335 336 336 335 337 337 338 338 338 333 336 337 336 335 335 334 336 335 336 336 337 337 336 338 338 335 334 334 334 335 333 334 335 337 338 338 338 337 336 337 335 335 337 336 338 339 339 339 338 338 338 340 340 336 336 336 337 338 338 336
325 324 324 325 325 328 331 334 334 332 329 327 327 326 327 329 331 331 331 333 333 333 334 335 335 335 335 334 336 337 339 337 338 337 334 335 337 334 334 335 336 335 335 334 333 335 337 337 340 338 337 336 335 332 332 333 334 334 333 335 337 338 337 337 337 337 335 336 337 336 337 338 339 337 339 338 340 340 337 335 337 335 336 337 339
323 323 325 326 325 328 330 332 331 329 327 327 327 326 327 328 329 329 330 330 332 332 333 333 334 334 334 334 335 336 336 336 337 336 336 335 335 334 334 335 335 334 333 333 332 331 330 333 335 337 337 334 335 335 333 333 333 333 333 334 336 336 337 338 339 338 337 335 337 336 336 338 338 338 338 340 339 340 340 336 335 336 336 334 334
321 322 323 324 325 326 328 329 327 325 325 326 326 326 327 327 327 328 329 330 331 330 332 332 333 334 332 333 334 334 334 335 336 335 334 335 334 334 334 335 334 333 332 330 330 331 329 329 331 330 334 337 335 335 333 334 332 331 329 331 333 334 337 338 338 337 337 337 335 336 336 337 338 337 339 339 339 340 340 340 337 337 338 334 335
320 320 321 322 323 324 327 326 324 324 325 325 325 325 326 326 324 326 326 327 328 328 330 330 332 330 330 329 329 331 331 332 334 335 335 334 332 333 333 333 331 330 331 331 332 331 329 329 330 329 328 331 331 332 332 333 333 332 329 328 331 333 332 334 337 336 337 338 338 337 336 336 337 337 337 338 339 338 339 340 338 337 338 336 334
319 320 320 321 322 323 324 323 322 324 323 322 323 323 323 322 325 326 325 326 326 327 327 328 328 327 327 325 327 328 329 330 331 332 332 332 333 332 332 330 330 332 333 334 332 332 331 331 332 331 327 325 328 332 333 333 330 329 330 331 330 332 333 332 334 335 336 337 337 337 337 337 337 337 337 338 338 338 338 339 339 339 338 338 338
317 319 319 320 321 323 324 322 321 322 324 325 323 324 325 323 323 323 325 324 324 324 324 326 326 325 325 326 327 328 329 329 330 331 331 330 331 330 331 330 330 332 333 332 332 331 330 331 330 328 329 328 328 332 332 331 326 325 326 326 329 332 333 333 331 332 335 336 338 338 338 336 335 336 338 337 337 337 337 338 339 338 338 338 338
319 318 320 320 320 321 322 321 321 322 322 324 323 322 323 324 325 324 325 320 320 324 324 324 324 321 324 325 327 328 327 327 329 329 329 329 329 330 329 330 331 331 331 330 330 330 331 330 331 332 328 330 330 331 331 331 327 325 325 322 321 322 330 330 333 332 333 335 336 335 335 334 334 334 336 336 336 337 335 337 337 338 339 338 338
318 318 318 318 319 320 320 320 321 322 322 324 323 324 323 324 324 324 322 322 320 323 324 323 323 322 321 323 325 327 327 326 326 325 327 328 329 328 329 328 329 331 329 328 328 328 329 330 332 329 329 327 328 329 332 330 329 326 320 320 320 321 317 323 325 330 333 333 334 334 334 333 334 334 334 334 334 337 338 337 336 338 339 339 338
317 317 317 317 318 320 320 320 321 322 323 324 324 325 324 322 321 321 322 321 321 321 320 320 322 321 320 321 322 325 325 325 327 327 325 326 328 328 328 328 328 328 328 326 326 326 327 329 330 329 328 328 325 330 329 331 329 331 325 320 319 317 318 321 322 326 328 328 330 331 332 333 332 333 333 333 334 337 337 336 338 338 339 339 339
316 318 318 318 318 320 319 320 321 321 322 324 324 324 323 321 319 317 314 315 316 317 317 318 319 319 318 321 322 324 324 326 325 325 325 325 327 327 328 326 327 326 326 325 325 324 324 325 326 328 329 331 330 328 326 330 330 330 329 328 325 320 321 323 322 319 329 329 329 328 329 331 332 332 333 333 333 333 336 337 338 338 338 338 338
317 318 317 317 319 320 319 319 320 321 323 323 324 324 324 323 322 319 317 317 317 318 321 323 322 320 321 321 321 325 325 325 325 325 325 325 326 326 326 325 325 325 325 324 322 322 322 322 325 325 325 327 327 323 324 326 330 328 329 329 328 327 326 323 320 322 319 326 328 328 329 330 331 330 330 331 333 333 334 335 335 335 336 338 337
318 317 317 317 318 319 319 318 320 320 323 323 323 325 323 323 322 320 318 317 319 318 319 321 323 321 320 321 322 323 324 324 323 323 324 324 324 324 324 324 322 321 321 320 320 321 321 321 324 325 325 324 324 322 321 323 322 322 326 326 326 327 326 326 325 321 321 319 321 327 330 330 331 332 332 332 332 333 334 335 333 334 336 336 336
316 316 316 317 318 318 318 319 318 320 322 323 323 324 325 324 323 321 317 317 316 317 319 320 320 321 320 321 322 321 323 324 322 322 323 322 322 321 321 320 319 318 317 317 318 319 319 320 320 320 321 321 321 322 321 319 321 320 322 322 324 324 325 325 325 325 320 317 318 321 324 328 330 331 333 333 333 334 334 333 333 332 334 336 337
317 317 317 317 317 317 317 318 318 320 321 322 323 323 324 324 323 322 320 318 317 317 319 319 320 320 319 321 322 321 321 321 322 322 321 320 320 320 319 319 319 317 316 316 316 316 317 317 317 318 319 319 320 319 318 318 319 319 320 320 319 320 322 322 322 322 322 321 316 317 321 320 319 325 330 330 331 331 332 333 335 333 334 335 336
317 316 316 316 317 316 317 317 318 319 321 322 322 322 323 323 323 323 322 320 318 318 317 318 318 319 318 319 321 322 322 321 321 322 321 319 320 320 320 319 319 318 315 314 314 313 315 315 315 315 316 316 316 317 316 317 317 316 317 317 317 317 316 315 317 318 319 318 318 317 319 320 319 319 325 329 329 328 329 331 332 333 334 335 335
Wind_Speed
9 12 12 14 14 15 14 15 14 15 15 15 14 13 13 13 13 13 13 14 14 15 15 15 15 15 15 14 14 14 13 12 10 10 11 12 9 13 13 13 13 12 13 14 14 15 15 14 13 12 12 12 12 11 12 13 13 13 13 13 13 13 14 13 14 14 14 15 15 15 15 15 15 15 14 15 14 14 14 13 12 10 10 11 14
13 12 11 13 13 14 14 15 15 15 15 16 15 14 14 14 13 13 13 13 14 14 14 15 15 15 15 14 12 13 12 14 13 10 11 12 10 12 12 12 12 12 12 12 12 13 13 14 13 13 12 12 12 12 12 12 12 12 12 12 12 12 12 13 13 13 12 13 14 15 15 15 14 14 14 14 15 15 14 9 9 9 9 13 14
12 12 11 13 14 15 15 15 15 15 14 15 16 15 15 14 14 13 13 13 13 13 14 14 15 15 16 15 15 14 13 13 12 12 12 11 11 12 11 12 12 12 12 11 11 12 12 13 13 13 12 12 12 12 12 12 13 12 12 13 13 12 12 12 12 11 12 13 13 14 15 15 14 14 14 14 14 14 13 13 12 12 10 13 13
13 11 10 12 13 14 16 15 15 16 14 14 16 16 16 15 15 14 14 13 13 14 15 14 14 14 14 14 15 15 14 14 13 12 11 11 11 12 11 11 12 12 12 12 11 10 11 11 12 12 12 12 11 12 12 12 12 10 11 13 12 12 12 13 12 12 12 13 14 12 8 9 11 14 14 14 14 14 13 14 14 14 14 13 13
12 11 10 11 12 12 13 15 15 16 15 14 15 16 17 16 15 14 14 14 14 14 15 15 14 13 13 13 13 13 13 13 13 13 12 11 11 11 12 12 12 12 12 12 11 11 11 11 11 12 12 12 12 12 12 13 13 11 11 11 11 11 12 11 11 11 11 11 9 7 7 9 9 13 13 14 14 14 13 14 14 14 14 14 13
11 10 9 10 10 11 13 14 15 16 15 14 15 16 16 16 15 14 14 13 13 14 14 14 13 12 12 12 12 12 12 11 12 12 10 11 10 11 12 12 12 13 13 12 11 11 11 11 11 12 12 12 12 12 12 13 13 12 11 12 12 12 12 12 11 11 10 8 4 6 7 8 8 9 13 13 13 13 12 13 13 14 14 14 14
12 9 8 9 8 11 11 13 14 17 14 14 15 15 16 16 15 14 14 14 14 14 13 13 13 12 12 12 12 11 11 11 11 11 10 8 9 10 12 11 12 12 13 13 12 12 11 12 12 12 12 12 12 12 12 12 12 10 11 12 13 13 13 12 11 10 8 8 6 5 6 7 8 8 12 12 13 13 12 12 12 12 12 12 11
9 8 9 7 7 11 11 11 14 16 15 14 14 15 15 15 15 14 13 13 12 12 13 12 12 12 12 11 11 11 11 11 10 9 8 7 8 9 10 11 11 12 12 12 13 12 12 12 11 11 12 12 12 13 12 11 11 11 11 12 13 12 12 11 11 9 5 5 5 5 5 6 7 8 11 11 12 12 12 12 11 12 12 12 11
9 8 7 7 7 12 11 10 12 13 15 13 13 14 14 14 15 14 13 13 11 12 12 12 12 11 11 11 11 10 10 10 10 9 8 8 8 8 10 10 10 11 11 11 11 11 12 12 12 12 12 12 12 13 13 12 11 11 10 11 11 11 11 10 10 9 6 5 6 5 6 7 7 8 10 11 11 11 12 11 12 12 11 12 11
9 8 7 6 7 11 9 10 11 12 8 13 13 13 12 13 14 14 14 13 12 11 12 12 12 11 11 11 10 10 10 10 9 9 9 8 8 9 10 9 10 11 12 12 11 11 11 12 12 13 13 12 13 13 13 11 11 11 11 11 11 10 10 9 7 4 5 6 7 6 6 5 7 7 10 11 11 10 10 10 10 9 10 12 13
10 8 7 7 8 9 9 8 14 10 5 7 12 13 12 12 13 13 13 13 12 11 11 11 11 11 11 11 10 10 10 9 10 9 8 8 9 9 10 9 11 11 12 12 12 11 12 12 13 14 15 13 14 12 11 11 10 10 9 10 11 10 9 7 6 5 5 6 6 6 8 7 7 7 10 10 11 11 11 10 10 10 11 12 11
9 8 7 7 9 8 8 9 15 15 12 7 3 13 13 12 12 12 13 13 12 12 12 11 10 10 10 10 10 10 10 10 10 10 9 8 9 10 10 9 10 12 12 13 13 12 12 13 13 14 15 15 13 12 10 10 9 9 8 9 10 10 9 5 4 5 5 6 6 6 8 6 7 8 11 11 11 10 11 11 10 10 11 11 11
9 9 8 7 7 7 6 7 13 17 14 10 6 11 10 11 12 11 11 10 10 11 12 12 11 9 9 10 10 10 10 10 11 10 10 7 8 9 8 9 11 12 12 13 14 13 14 14 14 15 15 15 13 11 10 9 8 7 7 8 9 10 8 6 5 5 5 5 6 6 6 6 7 10 10 10 11 10 10 10 10 10 11 11 11
10 8 7 7 6 9 5 6 11 17 14 12 9 9 9 9 10 11 10 10 10 10 10 10 10 9 8 8 9 8 9 11 11 11 11 10 9 9 7 8 10 12 11 12 13 14 14 14 15 15 15 14 13 12 10 9 8 7 5 8 9 9 9 5 5 5 5 6 5 5 5 5 7 10 9 9 9 10 10 10 9 10 11 10 11
10 9 8 8 8 8 10 9 10 15 13 12 11 11 8 8 8 8 9 10 10 10 9 10 10 9 8 8 8 8 10 11 12 11 9 9 11 9 7 7 9 11 11 12 13 14 14 13 14 15 15 13 12 11 10 9 8 7 6 7 10 9 8 5 4 5 5 5 5 5 5 5 8 7 9 10 10 10 10 10 10 10 10 10 11
11 10 10 9 9 9 9 12 13 13 15 12 9 10 11 10 9 8 8 9 10 10 9 9 9 9 8 8 8 9 10 11 11 11 9 9 9 9 7 6 8 11 12 12 12 13 13 12 12 12 13 12 12 10 10 10 8 8 7 6 9 8 3 1 3 4 4 5 5 4 4 6 7 8 10 10 10 10 10 9 9 9 10 10 10
10 10 10 10 10 9 8 8 11 15 14 14 11 11 12 11 9 9 6 8 10 9 9 8 9 9 9 9 8 8 9 10 11 10 10 7 9 9 8 6 7 9 12 12 12 12 12 12 11 11 10 11 12 11 10 10 9 8 7 7 8 9 6 0 2 3 3 4 4 4 4 5 8 8 10 10 10 10 9 8 8 8 9 9 9
10 9 10 9 9 9 8 8 9 9 9 10 10 9 8 9 8 6 4 7 4 5 6 7 8 8 10 9 9 9 10 11 11 10 12 11 9 10 9 8 7 8 10 11 11 11 11 12 11 11 10 9 9 11 10 9 8 7 6 7 8 9 9 5 2 2 3 4 4 4 3 5 6 8 9 10 10 9 9 9 9 8 8 9 8
9 8 8 8 9 8 8 8 7 7 7 6 7 9 10 10 8 5 5 7 6 5 3 6 8 9 9 8 9 9 11 12 13 11 11 11 12 10 9 8 7 6 8 10 10 11 10 10 12 12 11 10 8 7 8 9 7 8 6 6 8 8 9 6 3 3 3 3 3 3 4 4 5 7 8 8 9 9 9 8 8 8 8 8 8
7 7 6 6 6 7 7 7 7 6 5 6 7 7 8 9 14 11 9 8 6 7 6 3 8 9 11 10 9 9 10 10 14 12 13 11 10 10 11 10 8 7 5 8 9 10 10 10 10 11 11 11 9 7 5 5 6 6 6 6 7 10 6 4 4 3 3 3 2 3 5 1 4 7 7 7 8 9 9 8 8 8 8 7 7
6 6 5 5 6 7 7 6 7 7 6 5 6 5 6 8 8 12 14 12 6 8 4 3 5 8 8 7 7 6 6 6 8 8 12 10 9 9 11 10 9 8 7 6 9 10 10 10 10 10 10 11 10 8 5 3 2 4 6 5 8 7 4 4 5 3 3 3 3 3 3 3 5 5 6 7 8 8 8 8 7 7 6 6 7
6 5 4 4 5 6 7 7 6 7 6 5 3 4 5 4 6 6 7 10 8 8 6 4 5 5 6 6 6 5 6 6 5 6 6 8 9 10 10 10 9 8 7 5 6 8 10 10 11 10 9 9 10 6 5 4 4 5 4 6 4 3 4 4 4 4 3 3 3 4 3 4 5 6 6 6 6 7 8 7 7 6 6 6 7
6 5 3 3 4 4 5 6 7 7 7 6 5 4 4 4 5 6 6 8 7 5 5 5 4 4 4 5 4 5 5 6 5 5 5 7 7 10 9 9 8 8 7 5 4 6 6 9 10 12 10 6 3 4 4 3 1 3 1 2 2 2 4 4 4 3 4 3 3 5 4 5 5 6 6 6 6 7 7 7 7 7 6 5 6
7 5 4 2 3 3 4 4 6 6 6 5 5 5 4 4 4 5 5 5 6 6 4 3 3 3 3 3 3 4 5 5 6 6 6 5 6 9 9 8 8 8 7 6 4 4 7 8 9 11 7 3 2 2 3 3 2 1 1 0 2 3 4 4 3 3 3 4 3 7 5 5 5 6 6 5 6 6 6 7 7 7 6 5 5
7 6 3 3 4 3 3 4 4 4 5 5 5 5 4 4 4 4 4 4 5 5 4 5 3 4 3 3 3 4 4 4 3 3 3 2 2 4 5 5 5 5 8 4 4 5 5 5 6 5 3 4 3 2 2 3 2 1 1 1 1 3 3 3 2 2 3 3 3 7 6 6 6 5 5 5 6 5 5 6 6 7 6 6 5
7 6 6 5 5 4 4 4 4 4 4 4 3 5 5 4 4 3 4 4 5 4 4 4 4 4 3 4 3 4 4 3 3 3 3 2 4 4 4 4 5 5 5 4 4 4 3 3 4 4 2 2 3 2 1 2 2 1 0 0 1 2 2 3 3 3 2 2 4 7 5 7 7 6 5 6 6 6 6 6 6 6 6 5 5
7 7 7 5 5 5 5 5 4 4 4 4 4 4 3 4 4 4 3 4 4 4 4 4 4 5 5 5 4 3 3 3 3 4 4 1 4 4 4 5 5 5 4 3 4 3 3 4 4 4 3 2 3 3 1 1 2 1 0 1 0 2 2 3 3 3 2 2 3 8 6 6 7 7 6 5 6 6 6 5 5 5 6 5 5
7 8 7 6 5 7 6 6 5 5 5 5 5 4 4 4 5 5 4 4 4 3 3 3 4 4 6 6 4 4 4 3 4 4 4 5 4 4 4 4 4 4 3 3 3 3 2 3 4 5 4 3 3 3 2 1 1 2 0 1 1 1 1 2 2 2 2 3 3 6 6 5 5 6 6 5 6 5 5 5 4 5 6 5 5
8 7 6 6 6 5 5 5 5 4 4 5 4 4 4 4 4 4 4 5 4 4 4 4 4 4 5 6 6 5 4 4 4 4 4 4 4 4 4 4 3 4 4 4 3 4 3 3 3 4 3 3 3 3 3 2 0 1 1 1 1 1 1 2 2 3 3 3 3 4 7 6 5 5 6 6 5 5 5 4 5 4 6 5 5
7 7 6 5 5 5 5 5 4 3 4 4 4 4 4 4 4 4 4 4 4 3 4 4 3 4 3 5 5 5 5 5 4 3 4 3 3 5 4 3 4 2 4 4 4 3 4 4 3 3 3 3 3 3 2 2 1 0 1 1 2 2 1 1 2 2 2 3 3 2 6 5 4 5 5 5 6 5 5 4 4 3 4 4 4
6 7 6 5 4 5 5 5 4 4 3 3 3 3 3 3 3 2 3 3 4 3 1 2 2 3 3 4 5 5 4 4 5 4 2 1 2 3 4 3 4 3 5 5 5 4 3 3 4 4 4 3 3 2 2 2 1 2 1 2 2 2 3 2 2 2 3 3 3 3 4 7 4 5 5 4 5 6 5 5 5 4 3 3 3
8 8 6 4 4 5 5 4 4 4 4 3 3 3 3 3 2 1 2 2 3 2 0 2 2 1 2 3 4 4 4 4 4 2 4 3 4 4 2 2 3 6 5 5 4 3 2 2 2 2 2 1 2 2 2 2 2 2 2 2 3 3 4 4 4 4 4 3 3 3 4 4 7 6 6 5 5 5 6 6 5 5 4 3 2
5 5 5 5 6 5 4 5 5 4 5 4 3 3 2 3 3 2 2 2 2 3 5 3 1 1 1 2 3 3 2 3 3 1 2 3 4 5 5 5 7 6 4 5 5 4 3 3 3 2 2 2 2 2 2 2 2 2 2 2 2 4 4 4 4 4 5 4 4 4 4 4 5 7 6 6 6 6 6 6 6 5 5 4 4
6 5 5 6 4 3 3 6 6 6 4 3 2 2 3 3 3 3 3 3 2 2 2 2 2 1 2 1 1 2 2 2 3 2 1 3 5 5 5 7 6 4 4 5 6 5 5 3 3 3 3 3 2 2 2 3 2 2 2 2 3 3 3 5 4 4 4 4 4 4 4 4 5 5 6 9 8 7 7 6 7 6 5 5 5
5 5 8 7 6 4 4 5 6 5 4 4 4 4 3 4 4 4 3 2 3 3 2 2 3 4 3 1 1 2 1 1 3 3 3 5 7 6 6 4 4 5 5 4 5 6 5 4 4 4 4 3 3 2 1 1 2 3 2 2 3 3 3 4 4 4 5 4 3 4 4 4 4 5 5 5 8 9 8 8 7 7 6 7 6
9 7 6 5 5 5 5 6 6 6 5 4 4 4 4 3 4 3 3 2 3 3 2 3 3 3 3 3 2 2 2 1 1 4 5 6 5 3 4 4 6 5 5 4 3 2 4 5 5 5 4 4 3 2 1 2 2 2 1 2 2 3 4 4 4 5 5 4 4 4 4 4 5 5 5 5 4 7 10 9 8 7 6 7 8
8 8 8 7 6 5 5 6 7 7 6 5 5 4 3 4 3 3 2 2 3 3 3 3 3 3 3 4 3 3 4 2 1 2 2 2 0 3 2 3 4 5 4 2 0 2 3 5 4 5 5 3 2 2 3 2 2 2 2 2 2 2 3 3 4 4 3 4 4 4 5 5 5 4 4 5 5 5 9 9 9 8 8 7 8
5 5 6 7 8 7 6 5 5 5 5 5 4 4 4 4 4 3 3 3 3 3 3 3 4 4 5 5 5 5 4 3 3 3 3 2 1 3 3 3 2 1 3 3 4 6 6 7 4 3 4 4 3 3 2 2 2 4 4 3 3 3 2 3 3 2 4 5 5 5 5 4 5 5 5 5 5 5 5 8 9 8 9 9 9
4 5 5 5 6 6 5 5 5 5 5 5 5 5 5 5 4 4 4 4 4 3 3 4 4 5 5 6 6 5 4 4 4 4 3 3 3 2 2 2 2 2 2 4 3 6 8 7 5 4 3 3 4 3 1 1 2 2 4 6 5 4 2 2 2 3 4 5 6 5 4 5 4 5 5 5 5 5 5 5 6 7 8 12 10
4 5 6 6 7 7 6 5 5 4 4 5 5 5 4 4 5 4 4 3 4 4 4 4 4 5 5 5 5 4 4 3 4 4 3 3 3 3 3 4 4 4 2 1 2 2 3 6 6 7 4 3 3 3 4 2 1 2 3 6 7 4 4 2 3 4 4 5 5 4 5 4 5 5 6 5 5 5 5 5 5 6 7 9 13
5 6 7 8 8 9 8 8 5 4 5 5 5 6 5 4 3 4 4 4 4 4 4 3 4 4 5 6 5 5 4 4 3 4 4 3 3 4 3 3 2 2 2 3 4 2 3 3 3 5 6 6 4 5 5 2 2 3 4 4 4 5 5 4 4 5 6 5 4 5 5 5 5 6 6 5 5 5 5 5 5 5 6 6 8
8 8 9 9 8 7 9 8 6 5 4 5 4 3 3 4 4 4 4 5 5 5 5 4 3 3 4 4 4 4 4 4 4 5 5 5 4 5 4 3 2 2 3 4 5 5 5 5 3 3 5 6 5 4 3 4 2 3 2 1 2 3 4 5 5 6 6 6 5 6 6 6 7 6 5 5 5 6 6 6 6 6 6 6 7
8 9 7 8 7 7 7 7 6 6 5 4 5 4 2 2 3 4 4 4 2 2 3 4 4 5 4 4 4 3 4 4 5 5 4 5 5 5 5 5 5 4 6 6 5 4 2 2 3 3 5 3 2 3 5 4 2 2 1 1 1 2 1 1 4 6 6 6 5 6 7 7 9 7 5 5 6 6 6 6 6 6 6 7 6
8 8 8 9 7 7 7 8 7 6 5 4 4 4 5 5 6 5 3 2 3 3 3 3 4 5 5 4 4 3 4 4 5 6 5 5 5 5 5 5 5 5 6 7 7 6 5 4 1 3 4 4 2 2 2 3 3 4 2 1 1 0 2 2 2 2 5 6 7 7 6 7 7 7 5 6 6 6 6 6 7 7 7 7 6
10 10 10 9 7 10 9 9 8 8 6 6 6 6 7 7 6 6 5 5 4 3 4 3 3 4 4 5 4 3 4 4 5 6 6 6 5 5 6 5 6 5 6 7 7 7 6 5 5 4 2 1 3 2 2 2 4 2 2 2 2 2 3 1 3 2 1 1 3 5 4 6 6 5 5 6 6 5 6 6 6 6 6 7 7
11 10 9 9 10 8 9 8 7 7 7 7 7 7 6 7 7 5 5 3 4 4 4 4 4 4 4 3 4 3 4 5 5 6 6 6 6 6 6 6 6 5 6 6 6 7 7 7 6 6 6 5 3 4 3 2 1 2 2 1 1 2 1 0 2 2 1 2 1 1 2 3 3 4 4 5 5 5 4 5 5 6 6 7 6
12 9 9 9 10 9 10 10 8 7 7 8 8 7 7 6 7 7 6 6 5 3 1 1 3 3 3 4 4 3 4 6 5 5 6 6 6 6 6 7 7 6 6 7 7 7 7 7 5 6 6 5 4 5 4 3 3 5 3 1 1 2 4 3 3 2 5 2 2 1 1 1 1 1 1 2 2 3 3 4 5 6 6 6 7
10 11 9 9 11 10 10 9 7 7 7 7 8 7 8 7 7 6 4 4 3 3 3 3 2 3 4 5 5 5 4 5 5 5 6 6 6 6 6 7 7 7 7 7 7 6 6 7 7 7 6 6 6 5 4 4 3 3 4 3 2 2 1 3 4 4 4 4 4 2 1 3 1 0 1 0 1 1 3 4 4 5 5 6 6
11 12 12 10 8 9 10 9 9 8 7 8 8 8 7 7 7 6 5 3 2 1 3 3 4 4 5 4 5 5 5 4 5 6 5 7 6 7 7 7 7 7 7 7 7 8 9 8 8 7 7 7 6 6 5 5 4 4 3 4 3 3 1 1 2 2 2 3 5 4 4 4 3 0 2 1 2 2 3 3 4 5 5 5 6
8 8 8 9 9 9 10 11 11 9 8 9 8 8 7 6 6 6 7 5 3 3 3 4 4 4 6 5 5 5 5 5 5 5 6 7 7 7 8 9 8 8 8 8 9 9 9 9 9 8 7 8 6 7 7 6 5 5 5 4 3 3 2 2 3 4 3 2 4 5 5 7 5 1 3 3 2 3 4 4 5 5 5 5 5
8 10 10 10 9 9 10 12 11 8 9 9 9 9 7 7 7 8 8 7 6 5 5 5 4 5 6 5 5 5 5 5 5 5 6 6 6 7 7 8 8 8 8 9 8 8 8 8 8 10 10 9 7 7 7 7 6 6 6 5 5 4 4 3 4 5 5 4 5 5 5 6 6 6 3 3 4 5 5 4 4 4 5 5 5
Wind_Direction
151 137 139 138 148 145 147 139 137 131 130 128 126 124 120 116 112 110 109 107 108 110 112 112 110 105 104 111 115 116 116 113 105 135 141 124 135 119 120 121 123 126 131 135 136 137 136 132 131 127 125 122 121 124 123 123 126 131 131 129 128 123 123 126 122 120 122 117 116 116 117 116 111 105 104 104 101 100 101 98 96 93 91 78 73
149 139 141 145 144 142 144 145 138 133 132 130 130 130 126 122 118 113 112 110 109 109 109 109 109 111 112 109 108 118 123 128 142 138 123 130 125 115 118 122 120 124 128 131 136 135 133 132 130 125 125 123 124 124 123 124 124 121 116 115 117 118 122 117 116 123 116 116 114 113 113 109 108 108 106 105 104 100 98 93 94 90 83 87 83
132 136 143 143 147 146 149 147 137 135 135 134 134 133 131 128 125 121 118 117 114 113 112 112 117 120 119 126 133 130 129 128 131 128 127 126 123 120 124 125 124 124 125 127 132 136 134 132 131 126 124 126 129 129 126 126 126 124 124 125 123 120 120 122 120 117 120 119 114 111 109 109 108 106 105 105 104 100 94 89 81 83 85 85 82
131 135 144 142 150 146 152 144 140 138 138 138 137 135 136 135 132 128 125 122 121 122 123 123 125 127 131 134 133 133 131 131 128 124 120 121 124 125 129 122 124 125 126 128 130 135 137 136 134 133 130 131 130 128 129 128 124 119 119 121 121 127 127 123 114 116 122 122 122 120 113 111 109 109 107 106 103 101 99 94 89 88 94 88 83
128 135 141 148 151 146 146 146 143 140 143 140 139 138 139 138 136 133 131 130 129 129 129 130 132 132 132 132 130 129 129 129 128 128 127 124 125 128 128 127 125 124 126 129 131 136 140 140 140 136 135 133 131 132 127 127 126 125 120 125 128 130 128 121 115 122 119 111 115 125 112 105 104 103 107 105 102 100 97 96 96 95 94 89 83
125 131 141 146 143 149 148 153 143 141 144 143 142 141 142 140 136 135 133 132 131 129 128 127 129 131 132 132 130 130 128 125 127 127 126 129 130 132 131 130 126 127 129 131 135 140 142 142 140 139 137 136 133 131 128 130 125 122 116 112 119 117 113 109 112 116 107 90 124 107 112 112 108 107 106 106 103 100 98 93 93 96 95 93 88
119 128 134 143 146 151 145 148 152 140 142 145 144 144 143 141 139 138 137 135 133 131 127 126 129 132 135 135 136 134 131 130 128 128 130 131 129 132 134 130 130 130 132 133 135 138 141 140 142 141 139 135 134 131 129 128 127 125 123 117 116 118 116 113 109 101 107 140 115 113 106 108 111 108 110 105 104 100 97 97 98 92 91 90 82
112 126 133 136 145 145 149 152 157 140 139 145 149 148 147 142 141 141 138 136 133 132 131 130 132 134 136 136 137 137 135 134 129 121 119 122 126 127 130 132 130 129 133 133 136 139 139 139 138 138 135 136 134 130 129 127 126 125 122 120 118 119 112 105 103 100 112 121 121 111 108 107 107 108 109 109 105 100 94 93 93 90 89 89 93
115 121 125 135 143 141 151 153 156 139 139 145 150 152 149 145 142 140 140 138 136 134 135 135 136 135 135 134 135 137 135 131 126 120 113 116 113 111 107 119 129 128 129 132 136 137 137 137 137 138 135 133 129 125 123 122 114 110 115 115 116 105 107 107 108 120 132 121 124 118 119 113 113 110 107 100 97 98 101 100 99 95 88 86 86
119 125 131 137 143 145 149 143 145 127 161 149 149 152 152 147 142 141 143 142 138 136 138 138 139 137 134 133 133 136 138 132 125 120 113 113 116 111 122 129 128 127 133 134 136 135 136 136 138 137 129 128 121 122 113 112 113 114 112 114 113 100 93 98 102 126 120 130 125 119 99 108 108 100 108 105 97 97 90 74 72 83 89 88 86
123 125 132 133 123 123 150 146 137 130 167 168 149 150 148 146 144 143 145 147 143 139 140 140 140 139 139 138 138 141 141 137 130 122 115 122 129 130 133 129 132 134 134 137 138 138 141 141 138 136 127 123 118 111 104 99 97 102 110 106 103 96 90 93 140 131 130 125 119 116 112 109 106 107 105 108 105 98 90 87 90 92 90 88 86
120 126 129 128 127 103 126 135 136 154 179 161 176 153 149 147 145 144 148 150 147 146 145 144 144 145 145 143 141 142 142 138 131 130 130 137 139 139 141 137 142 138 136 141 141 144 142 129 135 134 125 127 127 113 103 90 84 88 96 111 108 106 100 89 134 126 131 129 122 124 125 117 108 108 116 107 104 101 97 94 95 90 87 87 85
123 127 126 129 130 126 136 140 137 154 164 168 167 156 135 147 150 149 151 152 150 148 147 145 145 148 150 147 146 148 146 137 134 137 137 140 139 135 145 141 145 136 136 140 142 140 135 133 137 134 135 136 131 115 101 88 82 83 102 124 123 118 120 130 135 134 129 124 127 130 119 115 105 112 108 114 106 97 93 97 96 96 92 88 86
124 125 127 127 124 137 133 118 129 147 159 168 170 165 151 139 149 155 156 154 151 149 145 144 145 148 149 146 144 144 142 138 139 146 147 139 144 150 150 138 141 135 134 135 138 140 140 140 140 137 139 141 127 119 111 102 94 88 107 137 137 131 127 143 132 133 135 132 129 124 122 118 112 114 121 112 108 102 93 89 92 93 94 91 87
123 124 124 124 128 131 122 104 111 138 156 164 169 174 164 165 157 157 162 160 152 147 146 146 144 146 148 142 140 138 138 139 144 147 145 145 147 139 145 137 132 135 134 133 136 140 141 141 141 141 142 132 122 121 116 107 101 90 92 140 141 142 156 153 148 133 138 140 134 139 125 119 113 126 117 111 101 99 97 93 85 86 89 93 87
117 119 120 121 123 126 127 112 108 126 145 155 180 178 167 177 168 164 165 162 149 149 148 143 144 147 148 140 139 145 147 143 139 141 145 148 143 144 150 146 136 139 138 137 137 137 137 137 136 134 131 127 124 125 122 116 108 105 94 110 137 136 146 175 148 135 139 144 137 135 128 114 130 126 119 108 100 96 91 90 94 92 94 94 95
119 121 122 120 118 115 115 115 112 118 135 161 181 171 168 169 171 167 163 158 147 145 142 141 144 144 141 140 142 145 146 142 139 137 130 136 148 150 153 155 143 139 140 136 134 134 132 130 128 125 126 128 131 130 129 124 117 116 119 123 140 135 131 223 140 147 144 141 147 145 133 132 143 131 121 118 115 113 109 104 100 101 99 98 92
123 125 122 117 108 108 104 107 118 118 128 145 159 166 166 151 160 157 136 119 78 140 141 141 142 140 144 149 147 150 146 146 144 147 146 156 151 154 154 156 154 139 140 137 136 135 136 133 129 126 125 129 134 135 133 130 129 124 124 137 148 149 145 162 160 150 143 152 150 146 141 96 135 134 131 128 126 120 115 118 110 104 108 106 99
126 123 121 118 111 103 99 101 105 118 125 134 144 160 153 147 134 151 109 112 145 177 143 138 140 141 146 161 159 150 151 150 150 155 147 155 159 155 155 156 153 152 139 135 141 140 138 138 136 132 130 129 131 132 135 138 135 131 133 146 156 162 152 167 176 161 151 166 142 151 125 101 165 145 130 127 128 125 118 115 116 112 106 113 108
126 123 110 103 106 106 107 108 114 116 121 130 132 143 152 155 150 182 165 161 169 115 245 170 149 153 155 159 161 158 159 157 154 159 160 163 156 160 153 154 156 159 152 139 143 146 144 142 138 135 132 131 128 125 123 130 134 127 130 145 164 167 172 189 167 170 160 137 157 150 93 238 152 145 139 136 135 126 123 120 122 122 120 113 112
133 121 119 114 113 112 110 106 109 115 120 127 128 134 150 156 151 157 161 136 140 147 174 158 157 162 163 160 158 173 171 163 160 161 157 162 148 152 156 156 157 163 166 167 144 148 151 149 138 137 136 133 127 116 99 92 78 104 117 135 158 180 175 172 167 167 176 153 169 136 86 166 168 144 144 147 135 129 126 127 120 117 120 125 119
142 132 123 124 121 116 117 117 115 121 121 118 121 118 129 141 138 138 137 131 156 157 152 164 173 168 173 156 173 171 166 154 159 171 167 162 155 155 161 162 161 163 166 176 148 144 151 149 145 136 131 129 132 135 119 89 51 31 85 128 174 167 163 170 178 165 169 169 177 117 189 164 172 157 149 143 140 139 136 131 124 115 118 123 117
143 140 127 124 110 108 117 122 126 127 125 126 121 107 113 125 130 139 138 135 154 136 153 156 164 164 163 173 173 177 167 157 165 176 173 170 162 163 169 169 165 165 168 170 165 129 143 155 148 130 116 117 145 130 130 128 71 3 325 168 135 158 156 167 179 169 173 154 190 126 194 185 185 162 152 150 148 148 146 133 127 125 122 121 126
149 147 135 123 115 109 108 117 128 135 137 130 123 123 124 138 127 131 143 139 130 139 143 122 130 142 135 157 178 172 173 162 168 162 167 180 167 170 179 174 173 172 164 173 166 142 132 138 139 123 120 130 132 141 132 126 124 350 335 250 138 137 162 167 183 177 172 163 170 149 194 200 195 168 161 161 153 155 154 140 132 127 122 129 132
153 146 151 161 151 139 143 142 132 130 129 130 132 133 130 129 125 124 140 142 130 146 154 155 154 143 129 153 173 170 173 162 151 167 174 174 174 173 185 181 185 180 173 179 183 164 176 146 130 119 120 130 133 115 123 119 110 99 4 352 117 146 160 164 172 182 184 165 159 162 200 204 207 181 171 169 158 161 167 151 141 134 130 133 132
150 157 174 175 177 163 163 150 153 135 121 121 125 129 131 135 132 129 140 143 140 148 163 168 165 158 151 156 160 174 175 161 160 159 164 176 189 184 188 181 186 185 178 184 185 182 154 147 128 127 131 126 129 126 110 96 115 116 328 23 158 151 174 170 171 191 192 191 156 178 211 210 217 198 180 175 166 171 171 165 153 143 143 140 145
161 168 178 185 180 175 167 161 150 134 130 133 134 131 126 128 135 140 144 144 150 153 167 162 169 179 184 179 183 193 167 184 172 164 153 152 191 195 188 188 190 188 178 190 190 187 165 157 154 136 147 158 141 132 131 107 86 115 221 258 155 143 181 186 180 190 202 201 157 184 212 221 220 212 194 186 173 175 173 166 164 159 155 160 156
171 172 184 186 185 181 166 168 148 146 146 147 139 141 130 136 143 143 153 149 154 169 178 174 159 176 191 197 193 186 173 179 197 187 170 180 191 193 186 192 195 190 176 196 199 194 176 174 160 133 158 166 151 143 126 119 115 94 100 275 275 145 180 194 195 204 205 206 199 182 217 232 236 239 208 202 175 180 175 174 179 167 164 175 170
181 181 185 188 185 165 165 157 143 144 149 149 141 140 144 151 151 155 170 145 155 171 178 180 174 179 194 197 196 185 181 180 194 191 171 187 193 186 190 192 211 185 187 196 203 186 187 182 156 148 156 157 159 146 143 132 174 125 113 236 264 268 185 193 211 211 222 224 220 175 197 216 236 248 236 213 197 189 181 181 191 173 181 182 185
186 179 182 189 170 163 174 158 149 153 154 162 144 146 150 151 158 163 134 145 153 163 171 192 185 174 183 200 196 189 182 186 193 187 195 171 219 206 200 194 208 197 206 210 205 196 190 182 159 148 163 172 172 149 154 150 190 192 153 221 223 239 222 214 205 225 229 231 234 206 179 224 220 230 253 251 217 204 194 184 197 182 188 204 194
170 183 190 180 157 176 173 154 156 161 159 154 151 144 148 147 150 173 144 137 140 127 155 212 207 173 178 200 197 192 183 184 198 191 74 33 254 246 209 190 199 194 209 214 211 206 191 194 179 168 177 182 161 153 179 161 204 227 176 204 206 226 231 225 225 227 240 239 238 239 198 202 230 219 236 258 264 227 209 199 200 198 198 201 209
182 190 187 159 161 182 167 158 162 161 167 150 153 151 154 139 127 113 124 140 145 154 279 269 168 185 187 200 200 198 186 171 204 186 130 213 195 210 247 339 237 206 207 210 205 215 171 184 210 166 140 168 161 173 171 198 217 230 209 197 192 215 222 227 236 230 242 245 247 239 239 214 203 224 220 233 249 253 246 212 205 207 208 216 215
197 181 166 156 174 171 157 167 178 160 176 171 155 157 153 125 115 103 114 120 147 158 181 198 139 58 123 197 227 215 157 181 181 227 191 164 231 189 180 189 233 210 199 207 212 215 205 185 190 184 174 166 184 176 174 192 220 225 244 223 204 212 219 224 229 233 241 242 243 239 237 228 222 186 206 221 215 231 245 253 225 225 215 212 206
177 177 160 178 168 152 146 165 173 175 162 135 129 123 124 123 114 119 113 122 120 130 150 180 166 100 336 60 5 173 146 132 94 144 67 99 240 208 192 215 206 221 209 203 205 211 212 199 190 186 191 186 184 178 199 220 211 225 235 256 247 234 210 219 220 228 232 244 241 236 230 229 223 226 206 197 211 210 226 243 255 241 227 208 209
172 178 185 172 159 153 149 165 168 160 142 130 128 118 116 117 125 125 130 142 138 117 104 129 138 156 150 148 346 15 24 157 143 167 186 199 194 227 219 215 203 210 208 204 205 198 210 215 197 197 180 197 202 164 198 278 287 269 261 255 252 228 204 220 208 223 224 228 233 235 228 226 228 226 221 219 187 202 212 227 235 253 253 230 217
191 179 164 140 149 152 162 152 152 140 124 121 115 107 109 119 120 122 122 128 137 136 118 94 91 108 119 119 154 190 167 118 149 149 197 217 215 202 213 196 200 200 205 202 213 211 216 213 205 209 189 196 217 206 201 274 285 291 273 253 249 251 239 212 209 222 221 214 227 224 225 228 224 223 221 231 226 196 191 211 225 230 248 247 230
183 167 164 150 143 151 157 150 148 139 130 122 117 109 109 112 106 102 99 112 118 118 105 103 104 95 94 80 68 73 113 118 133 133 117 250 123 101 139 197 215 215 203 179 261 279 246 221 204 209 209 203 200 284 279 296 300 292 253 267 255 232 250 243 223 221 187 213 222 224 226 231 223 211 216 227 225 225 180 205 213 222 232 240 224
178 168 162 156 151 154 156 151 135 138 137 135 125 118 112 110 111 112 112 106 95 93 95 94 86 82 81 85 100 91 88 109 128 156 174 151 227 174 200 202 176 150 190 180 193 209 239 235 223 210 223 223 219 213 245 316 322 312 313 307 284 260 247 254 253 218 226 226 218 229 232 232 228 223 223 224 232 221 219 188 204 217 226 231 226
173 167 155 144 142 144 143 145 144 144 134 120 108 99 102 94 96 109 110 106 98 83 87 89 81 86 83 91 90 95 90 91 95 100 100 98 98 123 182 163 161 100 102 182 202 193 215 231 238 251 256 239 243 231 261 268 306 317 322 310 292 278 266 235 238 238 234 237 240 228 221 227 235 227 225 227 223 227 222 224 204 213 216 215 226
170 161 157 153 148 141 147 142 151 145 130 123 128 123 122 123 118 115 108 98 103 100 86 88 90 87 89 91 92 88 86 80 78 93 98 105 107 107 111 117 113 133 162 104 178 184 218 226 206 206 229 261 343 296 251 208 194 278 250 264 265 266 250 224 228 239 236 232 231 226 230 229 227 232 231 229 228 227 225 221 219 218 227 200 210
180 172 165 164 163 158 152 152 154 156 153 146 145 141 133 118 110 122 124 128 116 109 97 91 90 87 88 90 90 89 91 81 74 84 87 92 96 102 120 126 147 161 178 142 132 120 178 241 235 177 176 220 231 222 224 212 240 249 237 250 263 240 234 218 228 231 229 232 227 227 227 224 231 232 234 225 225 225 225 223 222 224 220 229 204
192 181 180 170 165 155 154 144 152 170 168 155 146 148 144 144 144 142 136 139 141 140 127 121 107 95 84 81 83 90 88 88 84 84 81 75 78 84 89 104 134 105 102 124 116 171 195 180 182 146 183 189 201 191 179 165 198 238 258 256 265 247 225 218 227 234 235 224 219 223 223 225 228 230 226 222 226 224 226 222 222 222 223 223 229
179 183 176 161 157 156 150 149 159 166 174 164 155 146 124 88 110 134 140 120 37 41 107 114 119 108 85 84 86 89 95 94 87 83 79 72 70 73 80 86 86 96 99 90 113 144 201 228 192 174 142 190 142 184 190 212 208 161 206 251 300 288 177 234 215 234 232 234 223 226 225 227 231 223 219 224 230 229 229 222 221 219 220 225 233
186 184 177 171 162 160 160 163 161 171 173 176 139 101 92 88 79 97 73 79 127 130 116 127 120 114 98 86 82 81 88 87 84 88 85 77 72 75 77 75 74 73 85 91 87 78 50 36 27 109 114 127 173 156 169 177 187 176 224 283 46 14 314 218 320 273 230 223 223 236 231 239 236 219 212 221 231 231 229 224 224 220 223 225 228
191 187 179 175 170 172 169 167 165 172 175 163 145 130 119 103 101 92 93 96 106 130 135 129 123 113 109 96 84 81 86 86 82 82 87 86 83 81 82 80 76 67 71 77 79 81 84 62 44 66 80 139 168 114 65 145 202 206 157 185 191 208 239 343 321 254 58 216 220 239 235 251 246 229 223 231 232 230 231 232 228 229 227 228 225
195 188 176 174 174 169 162 168 167 169 173 164 155 148 146 140 140 137 144 152 155 171 175 157 154 145 111 107 101 84 91 86 86 89 88 88 86 87 88 90 85 75 73 75 75 73 64 68 61 55 56 58 88 105 105 51 99 181 192 214 30 308 281 159 314 262 39 96 115 132 176 217 235 232 240 241 232 240 234 241 229 232 232 233 237
193 165 169 177 181 168 167 170 171 174 174 166 164 153 148 155 157 159 163 170 171 184 40 90 138 118 115 111 103 91 92 99 90 92 91 88 89 87 86 87 87 84 82 79 70 65 63 58 58 67 63 57 65 83 69 74 95 51 34 80 44 270 268 277 267 259 268 154 130 121 77 80 116 206 242 246 241 233 245 257 251 248 236 229 231
165 164 171 174 181 170 163 172 172 177 181 170 174 168 160 160 154 153 163 178 174 160 162 158 128 133 127 118 115 106 96 98 102 96 99 97 92 88 88 88 84 81 80 78 77 73 76 69 60 63 63 60 61 68 67 45 36 59 18 27 53 25 292 261 260 275 296 289 271 278 148 87 1 193 249 211 169 223 238 241 248 242 237 234 230
165 177 178 174 165 160 169 171 175 178 183 184 177 178 170 165 161 161 165 162 147 128 146 150 157 151 138 129 122 115 105 93 94 100 101 102 96 95 90 86 84 82 83 82 77 74 70 68 64 61 61 61 63 69 70 58 52 40 16 27 15 10 354 50 10 347 289 282 275 280 287 321 311 205 124 23 303 274 265 256 254 258 245 236 233
168 164 159 162 168 167 176 172 179 183 180 188 186 176 172 163 163 170 175 161 158 135 156 158 162 166 152 144 136 132 126 117 103 102 102 101 100 98 95 92 87 83 80 78 77 73 69 68 64 64 63 68 59 54 57 59 56 50 39 28 11 353 333 1 11 343 318 285 287 296 298 302 312 319 309 304 308 309 282 259 248 245 242 238 232
160 168 172 176 172 173 169 178 184 180 178 188 188 179 174 174 176 174 179 170 162 156 157 162 167 171 163 158 152 139 139 129 122 113 108 108 102 99 99 98 97 94 90 83 75 74 70 69 67 64 58 57 57 58 59 51 53 52 44 40 39 30 17 355 7 343 328 302 293 283 290 287 293 302 280 300 311 294 274 252 246 242 241 239 238